Theta_e
307 307 307 308 308 308 307 307 306 306 306 307 307 307 307 307 307 307 307 307 307 308 308 308 308 309 309 309 310 310 310 311 311 314 316 317 316 318 317 314 313 313 314 314 314 315 315 316 315 314 317 319 317 320 319 320 332 340 335 324 325 329 329 332 324 318 319 318 321 320 318 317 318 319 317 315 318 321 320 319 317 315 314 315 315 314 313 316
308 308 308 308 307 308 307 307 307 307 307 308 308 308 308 308 308 308 308 308 308 308 308 309 309 309 309 309 310 310 311 311 313 316 318 319 318 319 318 314 313 313 313 314 314 315 316 317 314 315 320 320 319 319 321 321 325 336 333 322 330 338 334 329 322 317 318 318 319 320 318 316 317 317 316 316 318 319 318 317 316 316 315 313 313 313 313 315
307 308 309 309 309 308 307 307 307 308 308 309 309 309 310 309 309 309 309 310 309 309 309 308 309 309 309 309 309 310 311 313 317 319 318 319 319 318 317 314 313 313 313 314 315 314 316 317 313 317 320 318 321 321 324 323 321 332 330 324 339 343 331 326 321 317 317 317 319 321 319 318 319 318 316 316 318 318 317 317 316 317 317 315 314 312 312 316
309 309 309 309 310 309 309 308 309 309 309 309 309 310 310 310 309 310 311 311 311 310 310 309 309 310 310 310 310 311 313 316 319 319 317 316 317 316 315 314 313 312 314 315 316 316 316 315 313 317 319 318 323 322 325 326 320 324 325 328 341 333 324 326 324 321 318 317 318 320 320 318 319 317 316 316 317 317 317 317 317 316 316 316 316 311 311 316
311 311 309 309 310 309 309 309 310 310 310 310 310 311 311 311 311 311 312 313 313 313 312 312 312 313 313 312 312 312 315 319 318 315 315 315 314 314 314 314 313 312 314 316 317 316 315 314 313 318 318 318 321 320 325 327 321 321 323 328 335 326 320 324 325 321 318 318 318 319 319 317 317 317 317 317 317 317 316 317 318 317 316 315 315 312 310 313
313 313 310 310 310 310 310 310 311 311 311 312 312 313 313 313 313 313 314 314 315 314 314 314 314 315 314 314 315 314 315 317 315 314 314 314 314 314 314 314 313 312 313 316 317 315 316 315 315 319 319 318 318 317 320 320 318 322 324 325 327 322 319 322 321 319 318 318 318 319 317 316 318 318 318 318 317 317 316 316 317 316 314 312 312 311 312 315
314 313 311 311 310 310 311 311 312 313 313 314 314 314 314 314 314 315 315 315 315 315 314 314 314 314 315 315 317 318 318 317 316 317 316 313 314 314 314 313 313 312 313 315 315 316 318 317 316 319 319 318 317 317 317 315 317 320 323 324 324 320 320 321 319 318 318 316 317 318 315 316 318 318 318 318 317 316 315 313 313 311 310 310 311 312 312 311
314 313 312 311 311 311 311 313 314 314 314 314 314 315 315 315 315 315 315 315 315 315 315 314 314 313 314 315 318 322 322 319 317 318 319 316 314 314 314 314 313 313 314 315 315 316 317 317 317 317 317 317 316 317 316 315 319 320 321 321 320 319 320 320 317 318 318 316 315 315 315 316 316 316 316 317 315 316 314 313 312 311 311 311 310 309 308 307
314 315 314 311 311 312 313 315 315 315 315 315 316 316 316 316 317 317 317 317 316 317 316 315 314 312 313 314 318 324 323 320 319 319 319 317 315 314 314 314 313 313 315 316 315 314 315 317 318 316 317 318 315 316 315 315 319 318 316 316 316 317 317 317 316 317 316 315 313 314 316 315 314 315 315 318 317 315 314 314 314 312 313 312 308 306 307 308
314 315 314 311 312 314 315 316 316 316 316 318 318 318 318 318 319 318 318 319 318 318 316 314 313 312 312 314 319 324 321 320 321 320 318 315 315 314 314 314 314 314 315 316 315 315 316 316 316 315 317 318 314 315 315 314 316 315 314 315 316 316 315 315 316 315 313 313 313 313 315 314 314 315 315 319 320 315 314 315 313 312 312 309 306 306 306 306
313 314 313 312 313 315 316 316 317 318 319 320 320 320 320 319 320 320 320 319 318 316 315 313 312 312 314 315 321 323 320 319 320 321 318 314 314 314 315 316 315 314 315 316 316 316 316 315 315 314 316 316 314 315 315 313 314 313 314 315 317 316 316 315 314 314 313 313 315 315 316 315 313 314 317 318 318 314 315 316 313 312 312 307 306 307 305 304
314 313 314 313 314 316 316 317 318 319 320 321 321 321 321 321 321 321 321 318 317 315 313 313 310 312 314 315 319 320 318 319 318 319 317 314 315 315 316 317 317 315 315 315 315 316 316 315 315 316 317 315 315 316 314 312 314 314 313 315 317 317 317 316 315 314 313 314 316 315 316 318 316 316 319 317 315 314 315 315 312 310 308 306 306 305 303 304
314 314 316 316 316 317 317 317 319 320 322 322 322 322 321 322 322 321 320 317 316 313 312 312 310 312 314 314 316 315 317 319 318 317 316 316 316 316 317 318 318 317 316 316 315 315 315 315 316 317 317 317 317 315 313 314 314 315 314 313 315 317 319 318 314 313 313 314 316 315 317 323 322 318 319 315 312 313 316 315 311 308 306 305 306 304 303 302
314 315 317 317 317 317 317 318 320 321 322 323 322 322 322 321 321 320 319 316 314 312 311 310 310 313 314 315 315 314 315 317 318 318 317 317 317 317 318 318 317 317 316 317 316 315 315 315 315 315 314 316 317 314 315 318 317 314 312 317 318 315 324 324 315 315 315 314 314 314 318 322 323 319 319 315 310 312 315 313 310 307 306 306 305 303 303 301
314 316 317 318 317 316 317 319 321 322 322 323 323 322 321 321 320 318 316 314 312 311 310 310 312 314 314 315 315 313 315 316 318 318 317 318 316 316 317 317 317 316 316 316 316 314 314 314 315 316 315 314 316 317 321 323 324 320 314 325 326 316 323 326 316 317 316 314 312 313 318 320 319 319 321 316 310 312 314 311 310 308 306 305 304 303 302 301
314 316 317 317 317 317 318 320 321 322 322 323 323 323 321 321 320 317 314 312 310 311 311 312 315 314 314 315 314 313 315 316 317 317 317 317 315 315 316 315 315 314 314 314 314 314 313 315 314 316 316 313 318 327 330 325 329 328 318 324 330 319 320 322 319 318 315 314 312 313 317 318 318 320 321 316 310 311 312 310 309 307 306 304 303 302 301 300
315 316 317 316 316 318 320 321 322 322 322 323 323 323 321 321 319 315 312 312 313 314 314 315 315 314 314 314 314 315 315 314 316 316 316 316 316 315 314 314 313 311 313 312 313 313 312 314 313 314 318 316 318 325 329 325 328 332 322 319 325 321 318 320 323 319 315 316 314 313 314 315 317 318 318 315 311 311 311 310 308 306 305 304 302 301 300 300
315 316 316 316 317 319 320 321 322 322 323 323 323 322 321 321 318 314 313 313 313 314 314 314 314 316 317 315 315 316 315 314 316 316 315 316 316 314 313 313 311 311 314 313 312 313 314 317 318 318 318 316 316 318 323 325 326 329 324 320 323 322 318 320 322 320 317 318 317 316 316 316 316 316 315 313 310 313 314 309 307 305 304 303 302 301 300 299
315 316 317 316 318 320 321 322 322 322 322 323 322 322 321 319 316 314 314 315 316 317 318 317 316 321 321 316 316 315 315 315 315 315 314 316 315 313 313 312 313 315 316 316 314 314 318 320 321 320 318 317 316 316 320 324 323 323 322 321 323 322 321 319 319 319 317 315 318 318 318 317 317 318 316 312 312 314 314 309 306 305 303 302 301 300 300 299
316 318 317 316 319 321 321 322 322 322 322 322 322 321 321 324 324 321 318 318 321 320 320 319 318 320 318 317 318 315 315 314 314 315 313 314 315 314 314 312 316 318 317 321 318 314 320 322 320 321 321 320 317 314 315 317 316 317 317 319 320 320 320 318 318 321 316 315 320 318 317 319 319 319 315 312 316 314 310 308 305 304 303 302 301 300 299 299
317 319 318 318 321 321 321 322 322 322 322 321 322 321 322 326 328 325 323 323 320 315 318 319 315 316 316 316 316 313 315 314 313 314 312 314 315 314 315 315 318 319 319 323 319 314 319 321 321 323 321 318 316 314 313 313 313 314 315 317 319 318 319 318 318 319 315 315 322 318 316 321 321 317 313 313 317 313 308 307 305 304 303 301 301 300 299 299
319 319 319 320 322 322 322 322 322 323 322 322 321 319 317 318 320 318 320 326 324 316 317 318 314 316 315 314 315 313 317 319 316 315 313 313 314 314 316 318 319 321 319 319 317 315 317 319 319 319 317 315 315 314 314 315 315 315 317 317 320 320 320 321 319 319 315 315 323 322 317 320 319 314 310 310 311 308 306 306 304 303 302 301 300 299 299 298
321 320 320 321 322 322 322 322 322 323 322 322 320 318 316 316 317 314 316 323 326 320 320 322 319 320 319 316 315 314 317 320 320 319 314 312 315 316 317 317 318 321 318 317 319 319 319 321 318 314 313 314 316 316 315 316 317 319 320 318 321 320 319 322 321 321 319 315 320 320 317 321 319 313 310 307 306 305 304 303 303 302 301 301 300 299 298 297
322 321 321 322 322 322 322 322 322 322 322 322 320 318 317 317 316 313 316 321 324 322 321 320 320 323 322 316 314 316 318 321 321 319 314 313 315 316 317 317 318 320 318 316 319 320 321 322 317 314 314 316 317 318 317 316 320 325 324 320 322 321 320 323 322 321 323 320 319 317 321 330 325 317 312 307 305 305 303 303 302 302 301 300 299 298 298 297
322 321 321 322 322 322 322 322 322 322 323 322 320 319 318 318 314 312 318 323 325 325 321 316 318 320 317 314 314 316 318 319 319 316 313 313 315 316 316 315 317 320 318 315 316 318 320 318 316 317 318 317 318 321 322 320 321 327 327 322 321 322 322 322 322 322 325 325 319 315 324 335 332 323 315 308 307 306 304 303 302 301 301 300 299 298 297 297
321 321 322 323 323 323 323 322 322 322 323 321 320 319 317 317 315 313 320 327 328 329 324 318 319 318 313 313 315 317 322 320 313 312 313 312 313 315 316 316 317 319 319 316 316 319 320 317 317 320 322 321 321 323 325 323 321 324 325 324 323 323 323 324 322 322 326 325 319 317 323 328 329 328 317 309 309 307 304 303 302 301 300 299 299 298 297 297
321 322 323 323 323 323 323 323 322 322 323 323 321 318 317 317 315 313 321 330 330 329 325 318 316 316 313 311 312 319 327 322 312 311 313 312 312 312 316 318 317 317 318 319 320 322 321 318 318 318 321 322 321 323 323 322 324 326 324 325 328 325 323 325 320 320 323 321 321 322 319 318 323 325 315 310 310 307 305 304 302 301 300 299 299 298 298 297
321 321 322 322 322 323 323 323 322 321 323 323 320 319 318 317 315 316 326 335 332 325 321 316 312 312 311 309 312 317 319 316 315 314 310 310 312 312 317 319 319 319 317 319 326 325 319 318 321 320 320 321 323 326 324 320 323 326 322 322 325 321 321 325 320 320 320 316 323 327 317 316 324 323 311 309 312 309 306 304 302 301 300 299 299 298 298 297
321 321 322 322 323 323 323 323 323 323 323 321 320 320 317 315 316 322 330 334 330 322 317 313 310 311 312 311 313 314 311 311 315 313 309 310 311 312 316 317 318 317 314 317 324 324 316 315 321 324 322 324 328 325 321 321 320 320 318 321 325 323 323 323 320 321 319 316 322 326 319 317 326 325 313 309 314 313 306 303 302 301 300 299 299 298 298 297
320 321 322 322 322 322 322 323 323 323 323 321 321 319 316 317 320 328 334 331 327 322 314 312 312 312 313 314 314 312 310 311 313 312 311 313 312 312 312 312 315 318 318 321 322 321 317 312 316 321 320 325 327 317 315 319 317 315 319 324 328 328 325 324 324 322 319 321 324 324 320 317 323 328 319 311 312 311 306 303 302 301 300 299 299 298 298 297
319 320 322 321 322 322 322 322 322 324 322 321 322 319 320 324 325 333 334 326 325 322 314 313 313 311 314 318 318 313 311 312 313 314 314 313 314 315 312 311 315 321 323 323 322 321 318 314 315 319 317 319 321 315 315 319 317 317 323 325 325 328 327 325 326 322 320 326 329 323 318 316 321 326 318 310 308 306 306 304 301 300 300 299 299 298 298 297
320 321 321 322 322 322 322 322 323 323 321 321 322 321 325 328 328 333 330 324 328 325 318 318 314 311 314 318 319 314 313 314 312 316 318 316 317 316 316 318 319 322 322 323 324 322 321 321 319 317 315 316 321 320 317 319 321 320 323 324 324 325 322 321 324 322 322 325 322 319 318 317 321 319 311 307 305 305 306 303 300 299 299 299 299 299 298 298
320 321 322 322 323 322 322 323 323 323 321 321 322 324 327 330 331 332 328 328 333 324 319 322 318 316 317 317 318 315 314 315 312 314 317 317 318 316 318 321 319 321 323 322 322 321 323 325 319 314 315 317 320 320 318 321 321 316 319 324 325 323 319 321 322 318 319 322 318 316 317 319 322 315 306 304 302 302 303 301 300 299 298 299 299 299 298 297
322 322 322 322 322 322 322 322 322 322 321 321 323 325 327 331 330 328 327 329 329 321 319 320 316 317 318 318 320 316 314 316 312 313 316 315 317 319 319 318 314 319 324 320 319 321 324 327 323 318 318 318 316 317 325 329 320 315 320 321 322 325 324 323 322 319 321 325 319 315 316 324 325 313 303 301 300 299 301 300 299 299 298 299 298 298 298 297
322 321 321 320 320 320 321 321 321 321 321 321 324 326 328 330 329 328 330 328 325 321 320 321 319 317 318 319 320 317 316 318 314 313 317 317 320 323 324 320 316 319 323 322 321 320 321 326 326 318 314 315 315 316 324 328 320 315 317 318 318 324 324 320 322 323 322 324 321 319 321 320 315 306 301 301 300 299 299 298 298 299 298 298 298 298 298 297
319 317 318 317 318 320 320 320 320 320 320 322 326 328 328 328 328 329 330 325 324 322 320 324 324 320 320 322 321 317 315 320 317 314 317 318 319 322 325 326 320 317 320 324 325 320 319 325 323 314 313 314 314 317 319 322 322 316 314 321 322 319 320 322 323 320 318 320 321 322 321 314 309 307 303 301 301 300 299 298 298 299 299 299 299 298 297 296
316 315 315 315 317 319 320 320 320 319 320 323 327 327 325 326 326 327 326 322 322 321 320 325 325 321 322 323 323 320 317 320 318 316 320 320 318 320 321 323 320 316 317 321 324 323 321 325 323 315 316 314 309 314 317 316 319 318 319 324 320 315 320 324 324 322 320 321 321 321 320 315 315 314 305 301 303 301 299 299 299 299 299 299 298 298 298 297
314 313 313 314 317 319 319 320 319 317 320 324 327 326 324 324 322 322 324 321 321 322 323 326 325 323 324 324 325 322 319 320 318 318 322 321 320 322 319 319 318 316 316 316 318 321 320 323 323 316 316 316 311 315 319 313 312 317 321 319 316 318 322 322 321 322 321 319 321 324 321 318 319 316 309 306 305 302 300 300 299 299 299 298 298 298 298 297
313 313 315 314 315 318 319 319 317 317 321 325 327 327 324 323 322 323 324 322 323 324 326 326 325 325 324 325 327 323 319 321 319 319 322 320 320 320 317 318 317 314 316 316 316 321 320 321 322 315 313 315 315 317 321 317 311 313 316 314 316 319 321 321 318 321 322 319 320 322 319 321 324 319 316 314 305 301 301 300 299 299 298 298 298 298 297 297
312 315 317 313 313 317 318 317 317 319 322 324 326 326 323 322 324 324 322 323 324 323 325 327 326 326 325 324 325 324 321 322 320 319 321 320 320 317 317 319 317 315 318 318 319 321 318 317 321 319 314 315 318 318 322 322 315 315 317 316 316 316 317 320 317 319 323 321 321 319 316 323 324 315 314 313 305 301 301 300 299 298 298 298 298 297 297 297
311 317 316 311 312 316 316 316 318 320 322 323 324 324 322 321 323 322 321 323 324 321 323 328 327 326 327 325 324 323 323 323 321 321 321 322 322 318 317 318 317 315 317 317 320 320 316 317 323 324 318 319 322 318 317 322 322 323 324 320 319 318 319 319 317 318 320 319 321 319 317 322 319 309 310 309 304 301 300 300 299 299 299 298 297 297 297 297
312 317 314 310 312 314 315 318 319 320 322 322 322 322 321 321 322 322 320 321 323 321 321 324 325 325 326 325 323 323 324 323 321 322 322 323 324 319 316 317 318 319 320 318 318 317 316 320 325 324 320 319 318 313 312 317 320 322 321 318 320 321 320 319 318 318 318 317 318 318 318 319 313 308 308 306 303 302 300 300 301 300 299 298 297 297 297 296
313 314 311 310 312 314 316 319 319 320 321 320 319 319 319 320 321 321 320 319 321 322 320 320 321 322 323 322 322 322 322 321 321 322 322 322 322 319 317 316 317 322 323 320 318 317 317 320 320 321 322 319 314 312 314 315 315 317 317 316 318 319 319 318 317 318 320 318 317 316 318 317 312 309 307 304 303 302 300 301 301 301 300 298 298 298 296 296
311 311 310 310 312 313 317 319 319 320 320 318 318 319 318 318 319 320 319 320 320 320 320 320 320 321 321 321 321 321 320 320 320 320 321 321 319 316 314 313 314 319 320 319 320 319 318 319 319 320 321 319 315 314 316 316 316 318 318 316 315 317 316 314 312 314 316 316 316 315 316 316 313 309 306 304 305 304 302 301 301 302 302 300 299 298 297 296
310 311 311 310 311 312 314 316 317 319 319 318 319 319 318 318 318 318 319 319 319 319 320 320 320 320 320 319 320 319 318 320 320 318 319 319 317 315 313 313 314 317 317 316 317 318 317 318 319 318 319 319 317 316 316 317 316 315 314 313 312 313 314 312 312 313 314 315 315 314 315 314 310 308 307 305 306 307 305 302 301 303 302 300 299 298 297 297
310 310 310 309 310 311 312 312 314 316 318 318 318 318 318 318 318 318 318 318 318 318 319 320 319 319 320 319 320 320 318 319 319 319 318 317 316 314 312 312 314 315 314 314 316 317 317 317 317 318 318 316 317 316 313 314 315 314 312 312 311 311 311 311 312 313 313 312 312 311 313 312 309 309 309 308 308 309 308 306 305 303 302 301 299 297 296 296
309 309 309 309 309 310 310 311 312 314 316 316 317 316 317 318 317 316 317 318 318 317 318 319 318 318 319 318 318 319 319 318 318 318 317 316 315 311 309 310 312 312 312 312 313 316 316 315 314 315 316 314 313 314 312 311 314 314 313 313 312 309 308 309 310 311 311 311 310 309 309 309 309 308 308 310 310 310 309 309 308 306 304 301 298 296 295 295
307 308 308 309 310 310 309 311 312 313 314 315 315 315 316 317 316 316 317 317 317 317 318 319 318 318 319 318 318 319 318 318 317 317 316 315 313 311 310 310 309 310 311 310 311 314 316 315 312 312 313 312 310 310 309 308 310 312 311 312 312 309 307 308 308 308 310 309 309 308 307 308 308 306 305 308 310 310 309 308 306 304 303 300 297 295 294 293
305 306 306 307 310 311 310 310 311 312 313 313 314 313 313 314 315 315 316 317 317 316 317 318 318 317 317 317 318 318 318 318 317 316 314 313 313 312 312 312 309 308 310 311 310 311 313 313 311 309 312 311 307 307 307 305 307 308 308 308 308 306 305 305 305 305 306 307 307 306 306 305 304 303 304 305 306 306 305 304 302 302 303 301 298 295 293 292
303 305 305 306 307 308 309 310 311 312 311 311 312 312 312 313 313 314 315 317 317 316 316 317 317 317 317 317 317 317 317 317 317 316 314 313 312 312 313 313 310 307 308 310 309 308 309 310 308 307 310 309 305 305 306 305 304 305 304 303 302 301 302 302 302 302 303 304 303 303 303 302 301 302 303 303 304 302 302 302 304 304 302 299 295 293 293 293
298 299 302 305 307 307 307 309 311 312 311 311 311 312 312 312 312 313 314 314 315 316 316 316 316 316 315 314 315 316 315 315 315 315 313 312 312 311 312 313 310 308 308 307 306 307 308 308 305 305 310 307 302 302 303 302 302 302 301 300 298 299 300 300 300 301 301 301 301 301 302 301 300 301 302 302 303 302 301 302 304 302 299 296 295 295 295 296
296 296 297 301 305 306 306 308 310 311 311 311 311 311 312 312 312 313 313 312 311 311 311 314 315 314 314 314 313 314 312 309 307 305 304 306 308 308 309 310 308 308 307 306 306 307 306 307 306 306 309 305 299 300 302 302 302 301 300 299 298 298 298 298 298 299 299 299 300 300 300 300 300 301 301 301 301 300 300 301 300 299 297 295 295 297 297 297
Wind_Speed
3 3 2 2 2 3 3 3 3 3 3 4 4 4 5 5 5 5 6 6 6 7 7 8 8 9 10 11 12 13 15 16 16 13 8 7 4 6 2 1 1 6 8 8 8 7 5 2 2 1 2 2 2 1 2 3 2 4 3 3 0 2 3 5 5 3 1 3 5 5 1 2 4 4 3 2 3 4 7 8 6 5 6 9 11 10 9 7
4 3 3 3 3 3 3 3 3 4 3 3 4 4 4 5 5 5 6 6 6 7 7 7 7 8 9 10 12 13 15 17 16 12 7 3 6 7 3 1 1 6 8 8 9 8 6 1 2 3 4 2 2 2 2 2 2 3 3 2 2 5 5 5 5 3 1 3 5 5 3 3 4 2 2 2 5 6 7 10 8 8 10 9 11 11 9 7
4 4 4 3 3 3 4 4 4 4 3 3 3 3 4 4 4 5 5 5 6 6 7 7 7 8 9 9 11 12 14 14 9 6 2 4 9 7 3 1 2 6 7 6 7 7 5 2 4 5 4 2 1 2 2 1 0 2 3 1 5 6 5 5 5 5 5 4 3 5 3 3 5 2 1 2 6 6 6 10 8 10 12 8 6 6 5 8
4 4 4 4 3 3 3 4 4 4 3 3 3 3 3 4 5 5 6 6 6 6 7 7 7 7 8 8 8 9 11 8 2 2 3 8 9 6 4 2 3 7 7 5 6 5 2 1 3 4 4 1 3 3 1 2 1 1 3 4 6 4 3 7 6 4 5 3 2 5 4 7 6 2 1 3 6 7 7 8 8 12 14 11 7 4 4 8
5 4 4 4 3 2 3 4 4 3 3 3 3 4 4 5 6 7 7 7 7 7 7 8 8 7 7 7 6 7 7 5 1 3 4 8 7 5 5 4 6 8 9 6 5 4 2 2 4 4 4 0 2 3 2 3 3 2 2 5 6 3 3 8 5 3 3 1 4 5 5 6 4 2 2 2 6 7 6 7 9 11 12 11 10 7 4 6
5 3 3 4 3 3 4 4 4 3 3 4 4 5 6 7 7 8 8 8 8 7 7 8 8 7 6 5 4 3 3 0 3 3 6 7 6 5 4 5 7 9 10 7 4 3 2 4 4 2 2 1 1 2 3 2 3 2 4 3 5 4 4 6 4 4 4 3 6 3 4 3 4 7 4 4 9 10 9 7 8 11 13 12 9 8 7 6
5 4 3 4 4 4 4 3 3 3 4 4 5 6 6 7 8 9 9 10 10 9 8 7 8 7 6 4 3 2 2 4 7 5 7 7 7 5 4 4 6 9 11 8 3 3 3 5 2 3 4 1 2 4 3 1 2 4 4 4 5 4 6 6 4 6 5 5 7 2 4 4 5 7 3 6 12 13 11 6 7 13 15 13 8 7 7 7
6 4 4 4 4 4 3 2 3 3 3 4 5 6 7 8 8 9 10 10 10 9 8 7 7 6 4 3 2 2 1 7 9 8 8 9 9 6 5 5 6 9 10 8 4 4 3 4 3 3 2 2 3 3 3 2 1 4 4 4 4 3 6 7 6 8 8 7 6 2 6 8 8 3 3 11 16 15 10 3 6 9 10 9 7 8 7 8
6 5 5 5 3 2 2 2 2 2 3 4 5 6 7 8 8 9 10 11 10 9 8 6 5 4 3 3 4 2 4 6 6 7 7 9 10 7 6 5 7 9 8 5 3 4 3 3 3 3 4 3 3 2 2 3 1 4 4 3 4 5 6 7 7 8 7 5 2 4 11 10 6 2 4 13 15 12 7 6 7 5 7 7 8 9 9 10
8 5 5 5 3 2 1 1 1 2 3 4 5 6 7 8 8 10 10 11 10 9 8 5 4 4 5 3 5 1 5 3 3 5 6 8 9 7 7 5 7 10 7 4 3 4 3 4 3 4 5 2 1 2 1 3 2 3 3 4 5 6 7 5 7 9 6 5 4 6 12 9 3 1 3 10 11 7 7 8 7 7 7 7 10 8 10 12
9 6 5 4 3 2 1 0 1 2 3 4 5 6 7 8 9 10 10 11 10 9 8 5 4 5 5 4 5 3 5 3 3 3 6 7 7 7 7 6 6 9 7 5 4 4 4 5 5 4 2 1 0 2 2 2 2 1 1 6 7 6 8 7 7 9 4 4 6 8 7 6 2 2 6 11 9 6 8 9 6 8 6 9 10 8 10 11
8 6 5 4 4 3 2 1 0 1 3 4 5 6 7 8 9 10 10 10 10 9 7 4 5 7 6 3 4 8 6 4 3 3 6 6 7 7 5 5 5 7 8 6 5 5 5 5 6 4 2 2 1 2 1 3 1 1 2 4 8 7 8 10 6 3 3 2 5 8 2 6 1 6 11 11 8 8 9 8 7 8 7 9 8 8 9 10
9 6 5 4 4 3 3 1 1 1 3 4 6 7 8 9 10 10 10 9 9 8 6 4 6 9 6 1 6 10 9 6 4 4 6 6 6 5 5 4 4 5 7 7 7 6 6 4 6 5 3 4 1 2 1 0 1 2 2 0 5 6 6 9 2 1 1 2 6 6 1 6 6 9 12 9 5 7 9 7 8 8 7 8 7 8 8 11
9 6 5 4 4 3 2 2 1 2 3 5 7 8 9 10 11 10 10 9 8 7 4 3 7 8 4 3 5 6 9 8 7 6 6 6 5 5 6 5 4 3 4 6 6 5 5 4 6 4 1 3 1 1 2 4 3 2 1 1 2 2 5 8 3 0 2 1 5 5 2 6 9 10 12 8 2 3 7 7 8 7 7 7 7 8 7 10
9 6 5 5 5 4 3 2 1 2 4 6 8 10 11 12 11 10 9 8 6 3 1 5 8 6 1 4 4 3 6 8 9 9 7 7 6 5 6 6 5 4 3 4 5 4 3 3 4 3 1 1 3 3 3 4 3 2 0 3 3 2 5 11 7 2 2 2 3 5 2 5 8 10 13 8 1 2 5 6 8 7 8 7 6 7 7 8
9 7 6 5 4 4 3 2 2 3 5 7 8 10 12 12 10 8 7 5 3 3 5 4 5 4 0 3 1 2 5 6 8 9 8 8 7 5 6 7 5 5 4 4 5 5 4 4 2 2 1 1 4 5 3 4 4 3 1 3 3 3 2 7 7 1 3 1 3 2 2 4 6 8 12 9 5 6 6 6 8 7 7 7 6 6 6 6
9 9 6 5 5 4 3 1 2 4 6 7 8 10 12 12 8 5 3 3 5 6 5 3 3 1 1 1 1 2 4 5 7 8 9 7 6 6 8 6 5 6 6 5 5 3 3 4 1 0 2 2 3 4 3 2 4 4 0 2 4 4 3 3 5 5 4 4 1 2 2 5 8 8 12 12 8 8 6 6 7 7 6 6 6 6 7 7
11 9 6 5 5 4 3 1 1 3 6 7 9 10 11 9 5 2 0 3 4 5 3 1 2 0 3 2 2 2 2 5 7 9 8 6 7 7 6 4 5 7 6 5 3 3 3 3 2 1 2 2 2 5 2 4 4 4 3 3 3 3 4 4 5 4 6 5 2 4 4 8 10 10 11 10 8 8 6 8 7 6 7 6 6 7 7 8
10 7 6 6 5 4 3 1 1 4 6 8 9 10 8 5 2 2 1 2 2 2 0 2 3 2 3 3 3 2 4 7 7 7 8 8 9 7 6 6 6 6 4 2 2 1 1 3 4 1 1 3 5 7 8 9 7 6 5 4 3 4 5 5 5 5 2 4 5 6 6 7 9 10 9 7 6 6 6 8 6 6 7 6 6 6 6 8
9 7 7 7 6 4 3 2 2 4 6 9 9 8 3 1 2 2 1 1 5 5 1 4 7 2 3 2 3 6 6 6 3 4 8 9 9 7 5 4 5 5 2 3 2 1 3 3 2 5 7 9 10 11 10 7 3 3 2 2 4 5 6 5 6 7 1 1 6 5 4 5 7 9 8 7 5 7 7 7 7 6 6 6 6 6 7 7
9 8 7 6 5 3 3 2 3 4 6 9 8 4 1 2 1 2 2 3 9 10 7 7 9 7 5 2 7 11 6 2 1 2 8 8 9 8 1 2 4 2 1 3 2 1 4 4 7 10 11 11 8 7 6 4 2 2 3 3 5 5 6 6 5 7 1 2 5 3 2 7 9 7 7 6 6 7 5 7 7 6 6 5 6 6 6 5
11 9 8 7 4 3 3 3 4 4 6 7 4 1 3 3 2 2 1 3 8 9 10 9 6 7 7 5 8 9 4 1 1 1 7 7 5 5 2 3 4 3 2 3 3 1 2 3 12 13 9 5 2 4 6 4 4 3 2 2 4 4 4 6 5 5 1 3 4 3 2 8 8 3 6 6 6 5 5 7 6 6 7 6 6 6 5 6
14 11 10 9 6 4 4 5 5 6 7 6 3 3 4 3 3 2 3 0 6 5 6 6 5 6 6 5 9 9 4 4 4 4 9 9 2 4 5 5 5 4 3 5 5 5 4 6 13 12 5 2 5 3 6 3 2 3 3 3 4 4 1 4 5 4 2 1 3 3 3 7 5 3 7 6 6 7 7 9 8 6 7 6 6 5 5 6
15 13 12 9 6 4 5 7 7 7 6 6 4 4 4 3 4 4 2 0 4 4 4 6 5 4 4 3 8 10 4 4 3 4 11 11 4 3 5 5 6 4 4 8 9 7 7 8 5 3 5 6 6 6 3 4 2 4 6 6 5 4 5 5 4 4 4 4 2 3 5 5 5 2 4 4 5 7 7 8 8 6 6 6 6 6 6 6
15 15 14 10 7 6 6 8 8 6 6 5 5 6 4 3 4 4 1 1 3 5 3 4 2 2 3 3 6 8 3 1 1 3 10 11 6 4 3 3 4 5 7 7 7 6 9 6 2 4 4 6 6 6 4 6 2 4 5 9 9 7 7 4 1 4 4 4 3 3 3 5 5 2 4 4 3 6 5 6 7 6 6 5 6 6 6 5
17 18 16 12 9 8 5 5 5 6 5 5 6 6 5 3 3 4 2 3 3 5 1 2 1 3 4 2 2 4 3 2 1 2 6 7 3 3 2 2 1 5 6 5 3 3 6 5 3 5 5 6 6 6 5 7 4 3 5 7 7 4 4 4 3 3 1 3 3 3 1 5 5 4 4 6 4 5 4 5 5 5 5 5 5 5 4 5
21 21 19 14 11 10 6 2 6 7 2 5 7 7 4 2 3 4 1 3 3 3 3 1 0 3 4 0 0 4 3 3 1 3 3 3 1 2 2 3 1 3 3 4 1 3 5 4 3 5 5 5 5 5 6 8 6 3 4 4 7 6 5 5 5 2 3 2 4 2 2 3 5 4 5 8 7 5 4 4 4 4 5 4 4 4 4 4
25 23 21 17 14 14 11 4 6 8 4 4 7 7 4 3 4 3 2 2 3 2 3 1 1 3 2 1 3 4 2 1 4 0 1 3 1 3 1 4 5 4 2 5 3 4 2 3 4 6 5 4 6 5 7 9 5 6 5 6 6 6 5 4 5 2 1 1 5 4 1 2 5 4 2 5 5 4 5 4 4 4 4 4 4 4 5 4
27 24 22 19 15 16 18 12 7 8 7 5 8 7 5 4 4 4 2 3 1 2 1 0 2 1 1 2 3 3 1 2 2 2 2 3 1 3 2 5 4 3 1 3 5 4 0 3 5 7 5 6 5 3 4 7 4 4 5 5 5 5 5 4 5 3 2 1 5 6 3 2 5 4 2 4 4 4 5 4 4 4 4 3 3 3 4 4
27 24 23 20 16 17 20 18 15 11 9 9 9 7 6 4 2 2 4 4 1 1 1 1 2 1 4 4 1 1 2 2 1 1 3 1 2 4 1 2 4 2 2 3 2 3 2 2 3 4 4 5 5 2 1 2 3 4 5 5 6 5 4 4 2 4 2 3 6 8 8 6 4 4 3 3 3 4 8 6 5 5 4 4 3 3 4 3
27 25 24 22 20 21 16 14 20 18 12 13 11 8 5 2 1 4 6 2 1 1 2 1 1 3 6 6 2 2 3 1 1 3 2 1 2 4 2 1 3 3 3 4 3 4 5 2 2 2 2 4 6 4 3 3 3 5 5 4 3 4 4 4 4 4 1 5 6 5 6 6 4 4 2 3 5 2 9 10 10 9 7 5 4 3 3 2
26 25 25 24 24 24 17 14 22 23 17 16 13 7 3 1 3 5 3 0 0 3 4 3 2 4 5 4 3 4 4 1 1 3 3 3 2 3 2 3 4 2 2 4 3 4 3 4 3 3 1 4 6 4 3 5 5 5 4 5 3 2 3 2 3 0 3 6 4 2 5 2 5 3 2 5 7 6 4 10 12 11 9 7 5 4 3 3
27 26 26 27 25 26 25 20 21 25 23 18 11 4 3 4 5 4 4 2 1 1 3 3 3 5 6 4 3 4 4 2 3 2 2 3 3 4 4 3 5 3 1 4 2 1 3 5 2 1 3 2 7 5 2 1 1 4 5 4 4 2 0 3 4 2 4 6 3 2 4 2 5 1 3 4 6 6 1 8 9 9 9 8 6 5 4 3
29 28 26 26 26 26 27 21 19 26 26 17 7 3 4 6 4 4 7 5 1 1 2 2 4 5 5 4 3 4 3 2 4 3 2 3 2 3 5 5 5 2 2 3 2 4 2 5 2 4 2 3 7 6 5 5 3 4 4 5 5 4 4 4 4 3 4 5 3 2 2 2 3 1 3 3 4 5 4 7 7 6 6 5 5 4 4 3
27 26 25 24 24 24 23 18 18 26 24 13 5 4 7 7 2 3 6 4 2 1 2 1 4 5 2 1 2 4 3 2 3 4 2 3 3 4 4 5 6 4 3 3 2 2 3 5 5 2 1 5 6 3 5 6 2 1 3 4 2 4 4 2 3 5 3 3 3 2 2 3 3 1 3 3 4 5 5 5 6 6 5 5 4 4 4 3
23 21 20 21 22 22 22 17 17 24 20 8 5 7 6 4 3 3 3 3 4 4 4 2 3 4 3 1 1 3 2 2 4 3 2 3 3 4 4 4 6 8 6 4 3 2 3 4 5 2 2 3 4 2 3 3 2 2 2 3 4 4 5 2 3 1 3 2 4 2 2 2 0 1 2 3 4 4 3 4 6 5 5 5 5 4 4 4
21 18 14 16 20 22 22 18 19 23 13 4 6 7 2 1 3 4 2 2 2 4 6 3 2 4 4 2 3 4 3 2 3 3 2 2 3 5 5 3 4 10 9 5 2 3 4 3 5 1 2 2 1 2 3 3 3 5 3 5 3 1 4 4 1 3 2 3 4 2 4 3 1 2 1 1 2 3 3 4 5 5 5 6 5 5 4 4
21 14 7 11 19 21 20 19 20 17 6 3 8 6 2 2 2 3 3 2 2 3 4 4 4 4 5 4 4 4 5 3 4 4 3 2 3 4 6 3 2 7 8 4 1 2 4 1 6 1 3 2 3 3 2 4 2 4 3 3 3 2 1 1 2 2 2 4 4 4 5 4 4 4 3 6 9 8 7 6 6 7 7 6 5 5 5 5
17 8 2 8 17 19 21 22 18 9 3 5 8 6 3 3 2 2 4 4 3 3 4 4 2 2 3 5 4 3 5 5 5 4 3 3 4 3 4 3 2 2 3 4 4 2 3 2 4 2 1 1 3 2 3 2 2 3 1 1 1 3 3 2 2 3 2 3 4 5 5 4 5 5 8 11 12 11 10 8 8 9 8 7 6 6 6 5
10 3 1 8 16 19 22 20 11 5 5 5 5 4 3 3 2 3 3 4 2 1 3 4 3 3 3 3 2 2 3 4 5 4 2 3 3 2 1 1 2 1 2 3 3 1 2 3 3 3 2 1 2 3 6 6 3 2 1 1 1 1 1 1 1 3 3 3 3 4 5 5 4 2 6 9 9 12 13 11 9 8 7 7 7 7 6 5
5 2 1 8 17 22 20 12 4 4 5 3 2 3 2 2 3 2 1 2 2 0 2 3 4 4 4 3 2 1 2 3 4 3 3 3 2 1 1 1 3 3 2 3 2 1 1 3 3 1 1 3 4 4 5 7 6 5 4 4 4 3 2 2 3 1 3 3 3 4 6 6 3 1 3 5 7 10 11 10 8 7 8 9 8 7 6 5
3 2 2 9 21 25 15 5 4 4 4 4 3 3 2 2 3 4 0 3 3 1 1 2 3 3 3 4 3 2 3 3 2 2 2 3 2 2 3 2 2 4 4 2 1 1 2 3 1 1 3 5 4 3 1 4 4 4 2 2 3 4 4 4 6 3 2 1 1 1 4 4 2 2 2 2 6 8 8 8 8 8 9 9 7 6 6 6
1 2 3 9 21 22 10 4 6 4 4 3 2 2 3 2 2 4 3 2 2 2 2 1 3 3 3 3 3 3 3 2 3 4 2 2 3 2 1 1 1 4 4 1 1 0 2 3 1 2 2 2 3 4 4 2 3 2 2 1 3 3 3 4 4 2 2 2 1 1 4 3 1 3 2 3 5 6 6 7 8 8 7 7 7 7 7 7
2 2 2 5 16 16 7 5 7 7 6 3 3 4 2 2 4 5 5 5 4 4 3 3 3 4 4 4 4 6 6 3 4 6 5 4 4 1 2 1 2 3 2 2 3 2 2 2 2 1 2 4 4 3 4 4 0 2 2 1 2 3 5 3 1 3 1 4 5 4 6 4 1 3 4 4 5 5 6 6 6 6 6 7 7 7 7 7
2 1 2 1 7 8 3 2 2 5 7 5 4 6 3 1 4 6 6 6 4 4 3 3 4 5 4 4 4 5 8 7 5 5 5 4 2 2 3 1 4 5 4 3 3 3 3 3 3 4 6 7 5 3 2 3 2 1 1 2 2 4 6 4 2 2 2 3 5 5 6 3 3 3 2 1 3 5 5 5 5 5 6 6 6 6 6 7
2 1 1 1 1 3 2 0 0 2 5 5 3 4 6 5 3 4 7 6 4 5 4 2 4 4 3 6 6 6 8 8 5 4 4 4 2 2 2 2 2 4 3 2 3 3 2 2 3 6 8 8 5 5 4 3 4 2 2 3 4 4 5 5 3 3 3 2 3 6 5 1 4 4 4 4 5 6 6 5 6 6 6 7 7 6 6 6
2 2 3 2 1 2 3 3 2 2 1 3 3 2 6 9 4 2 6 6 5 7 4 1 4 5 6 7 7 6 8 8 5 5 4 4 2 2 2 2 3 2 2 3 3 3 4 2 4 5 6 4 4 4 3 3 4 4 3 5 7 5 6 6 4 5 4 3 7 9 6 5 9 9 6 7 7 6 6 7 7 8 7 6 5 6 7 7
1 1 3 2 1 3 4 5 6 6 4 3 2 1 3 8 7 5 5 2 2 6 5 2 5 10 9 9 7 6 7 7 7 6 4 3 3 2 2 2 1 3 4 2 2 3 4 3 3 3 4 3 4 3 3 3 2 4 5 8 10 6 7 7 7 8 7 6 9 9 6 7 10 8 5 8 8 7 7 8 6 5 5 5 6 7 8 8
1 0 1 1 0 3 6 7 7 9 10 6 3 4 6 8 9 8 4 2 1 6 8 7 9 9 9 9 9 7 8 8 6 5 5 4 4 4 2 0 1 2 4 3 1 2 3 2 1 3 3 3 2 3 3 4 3 5 7 11 10 6 6 8 9 9 8 8 11 10 9 10 10 7 7 7 7 7 6 5 3 4 5 7 8 8 8 8
2 0 1 1 1 2 3 4 6 8 10 8 6 8 9 9 11 9 4 5 6 6 7 11 12 9 9 9 9 10 9 9 8 7 7 7 4 3 3 3 2 2 3 2 1 1 1 1 1 3 1 4 2 2 3 3 3 5 9 11 6 2 5 9 9 6 5 8 11 9 9 12 11 7 6 5 3 4 4 5 5 6 6 7 8 8 8 8
1 2 1 2 3 4 3 3 6 7 7 8 9 10 9 12 14 9 4 4 6 5 7 13 12 6 6 9 11 11 9 7 7 7 7 8 6 4 3 4 6 6 3 2 2 0 1 1 1 4 2 4 3 2 3 2 4 5 13 13 8 5 8 9 6 6 8 9 8 5 6 10 10 7 4 4 4 5 6 7 6 5 6 8 9 8 8 8
2 2 1 2 2 4 4 4 6 7 7 8 11 11 11 12 9 7 4 2 1 2 5 10 11 6 5 10 13 10 6 7 6 4 5 4 4 4 3 3 6 7 6 5 2 1 3 4 1 3 3 4 4 2 1 5 5 8 11 10 9 10 11 10 7 8 9 7 6 6 8 9 8 5 5 6 6 7 7 7 6 6 7 7 8 8 8 8
Wind_Direction
311 305 296 297 295 288 287 289 285 279 277 280 281 281 283 283 290 299 303 307 310 314 320 322 326 327 325 328 328 329 327 324 323 312 290 288 240 200 237 302 194 169 168 169 162 153 131 117 157 122 80 48 18 360 347 344 61 51 78 97 238 199 209 192 175 172 163 279 281 310 326 180 280 306 315 324 13 333 300 292 272 277 262 235 251 275 302 286
305 300 293 288 274 268 277 289 288 283 281 285 289 289 289 290 297 307 310 313 315 315 319 321 325 324 325 330 330 333 329 325 321 310 299 282 173 170 191 251 187 170 172 179 178 162 133 150 196 111 55 34 339 7 360 324 76 87 116 118 230 204 216 200 183 192 185 257 265 288 273 217 250 271 345 311 299 323 314 292 294 296 278 260 261 270 281 247
294 296 295 294 281 261 262 272 276 278 278 273 281 289 292 291 294 308 316 318 319 318 318 320 323 324 329 330 334 337 329 328 324 316 353 126 145 150 163 187 184 174 182 187 186 175 147 178 177 131 58 25 302 30 49 333 70 154 120 134 240 219 236 246 219 214 219 225 261 280 269 277 272 239 308 307 297 304 285 277 291 293 287 287 265 251 250 221
287 286 289 294 288 271 269 274 271 274 272 264 281 297 304 304 305 314 323 326 323 321 317 318 320 322 326 328 336 336 334 347 324 267 120 129 134 136 147 167 179 180 190 185 181 190 197 221 160 127 76 19 318 26 134 253 236 173 134 183 231 208 235 266 257 246 233 193 236 274 314 316 287 230 284 334 323 297 268 253 248 266 283 294 288 274 234 214
289 284 286 291 287 286 287 284 282 285 290 297 310 320 327 325 323 323 325 327 325 322 319 314 314 316 319 324 331 332 354 29 237 228 160 144 135 141 148 160 179 189 192 188 188 193 207 121 102 71 65 113 335 37 242 235 142 163 215 210 223 173 217 268 266 287 312 334 299 297 308 300 299 313 271 276 287 271 258 243 237 252 268 283 293 304 275 219
294 291 288 291 287 285 288 295 306 317 330 337 334 335 337 331 327 324 322 321 319 318 314 308 307 308 308 311 317 332 42 87 243 205 181 167 151 158 158 166 182 193 196 201 202 179 161 77 77 84 77 50 196 185 251 257 144 212 274 256 245 213 225 276 299 313 335 326 292 290 289 309 353 312 266 228 251 252 256 245 250 266 271 283 296 304 298 278
294 288 280 287 286 284 293 312 324 337 344 341 338 337 332 327 325 321 318 316 313 314 313 308 303 297 295 289 289 8 94 242 251 220 214 195 183 188 176 186 193 196 196 198 189 148 112 77 101 148 103 16 211 211 247 298 172 206 261 286 272 237 228 263 297 293 290 259 256 266 328 315 293 297 319 273 264 264 269 254 251 271 283 297 315 319 319 329
289 276 273 278 282 284 290 309 323 338 336 335 336 333 327 325 324 319 317 314 313 315 316 312 301 292 284 229 190 6 330 248 248 239 239 218 204 202 194 202 201 198 191 193 177 141 124 120 176 160 107 240 191 216 276 359 12 195 229 281 290 268 245 262 276 274 276 263 255 297 299 272 251 271 323 278 273 276 286 310 264 273 299 319 354 8 15 22
291 271 272 270 264 268 264 282 313 331 334 341 337 333 331 328 325 321 317 314 315 315 318 316 292 265 228 179 106 19 270 241 246 250 240 215 206 206 207 203 198 196 181 183 168 133 149 169 199 183 172 209 183 235 332 31 305 209 204 254 276 285 279 280 277 269 274 267 255 298 284 276 256 226 272 266 263 275 313 332 295 317 339 351 34 39 41 40
293 268 264 260 242 243 248 275 322 343 350 352 345 341 333 328 324 321 317 315 316 314 318 312 269 225 202 168 100 167 255 239 259 251 219 205 204 206 207 195 192 193 170 139 140 137 155 188 189 157 156 142 158 250 40 128 208 221 225 270 267 283 288 268 267 275 279 267 232 240 268 281 290 190 267 268 260 288 341 314 317 17 11 34 60 53 44 42
292 268 259 249 225 223 220 250 337 358 5 2 351 343 332 329 325 320 319 316 315 314 315 301 247 211 185 154 136 210 253 249 259 231 203 202 195 197 196 182 181 187 175 120 117 141 147 183 163 123 149 125 138 303 316 169 169 222 292 310 300 316 305 272 267 275 274 277 211 185 253 294 360 168 235 255 271 326 332 309 355 38 38 63 69 54 46 41
284 257 247 232 206 199 194 200 16 18 5 1 348 340 334 328 324 321 320 317 315 314 309 288 227 192 161 135 196 227 243 237 233 187 179 175 167 183 183 182 187 190 187 146 118 132 134 167 138 117 216 162 121 319 274 191 166 251 49 324 303 351 322 283 281 245 183 254 189 150 317 318 252 217 237 252 288 330 319 316 20 48 57 70 65 56 50 37
270 242 229 213 189 183 179 167 101 19 360 355 342 338 332 325 324 323 322 321 319 315 304 263 209 182 156 196 229 227 234 229 221 188 168 156 160 186 187 193 202 201 195 161 133 118 115 149 133 131 170 131 180 262 144 33 326 301 34 292 297 358 320 280 291 131 169 207 175 142 345 286 256 244 253 267 297 326 315 328 32 52 64 69 59 57 51 36
256 227 212 195 173 167 158 134 82 7 350 342 340 337 330 326 325 323 326 327 324 318 297 210 188 172 156 249 246 234 232 225 223 211 194 192 190 194 191 189 189 186 184 152 133 106 97 120 112 107 141 125 188 268 22 354 351 314 339 4 330 344 281 291 304 282 322 283 155 134 176 254 268 274 275 278 272 307 311 345 42 59 66 64 56 57 50 40
245 217 200 185 165 154 149 127 60 357 339 332 335 333 327 327 326 325 329 331 335 335 171 160 168 155 121 271 264 250 226 217 218 216 211 204 195 192 187 181 171 149 140 137 124 104 102 100 90 94 259 350 56 59 12 344 354 26 318 311 335 193 263 306 301 202 209 287 95 121 199 262 272 277 281 287 352 358 333 11 53 66 64 61 55 54 51 42
233 206 188 175 162 148 143 119 38 347 330 323 326 325 324 326 324 322 330 346 36 100 119 138 159 141 360 264 248 216 211 209 209 205 194 187 193 187 157 149 140 123 120 127 124 116 94 66 63 118 150 27 71 83 42 3 339 349 177 245 269 201 254 313 306 249 164 180 59 136 206 278 276 276 284 297 347 6 11 40 67 72 62 62 57 51 50 40
215 200 179 166 167 151 139 119 24 336 318 314 318 317 320 323 314 307 346 72 104 102 96 117 147 115 286 231 208 251 214 200 189 177 175 179 187 166 139 122 107 112 101 94 110 100 51 43 47 264 48 59 103 99 59 343 299 314 309 221 243 210 202 280 300 333 40 75 27 269 216 256 275 286 291 302 340 5 31 71 83 80 68 64 61 54 50 42
211 200 171 167 173 159 152 148 346 319 312 312 317 316 318 323 303 266 104 124 110 80 56 58 107 100 272 223 197 230 174 170 169 166 168 164 162 149 122 109 109 107 80 53 52 50 23 19 52 47 26 47 128 115 150 229 222 241 238 221 262 252 228 252 272 301 6 21 307 301 295 270 281 287 288 306 346 6 47 93 93 82 74 64 59 56 50 46
204 190 179 183 174 170 181 194 282 307 313 312 318 320 322 333 316 247 198 131 125 113 221 221 162 156 252 243 193 155 122 141 151 163 161 148 152 136 95 100 100 95 89 50 346 14 89 45 53 127 216 200 195 177 194 214 201 213 225 200 228 261 259 258 261 265 344 350 290 281 278 273 285 286 291 313 353 33 73 92 82 75 72 63 60 55 49 49
186 184 202 194 172 178 200 224 278 311 319 314 322 332 330 5 11 313 271 189 213 213 207 207 197 208 282 269 148 140 131 130 133 161 159 154 153 133 87 72 58 53 110 152 212 295 92 102 176 208 212 211 212 205 207 222 202 205 230 226 237 249 270 268 267 279 314 325 274 263 262 271 273 281 304 325 15 64 85 90 79 74 68 61 63 57 51 51
182 189 205 189 173 191 208 245 287 311 316 312 321 341 192 171 100 294 269 263 248 239 251 235 214 239 260 206 156 154 140 104 30 126 155 158 147 142 112 50 78 38 234 151 138 20 78 138 220 223 216 217 219 201 202 235 233 224 235 260 273 249 256 257 249 280 299 159 257 274 322 289 275 289 332 356 45 59 73 93 89 82 77 65 60 56 51 50
185 192 203 199 202 209 224 265 282 294 301 299 299 260 195 189 175 214 180 290 275 243 239 244 231 249 251 228 198 173 137 155 252 227 167 151 137 168 171 91 134 197 208 121 95 69 106 208 237 233 221 233 263 158 162 203 194 185 191 200 261 249 267 277 264 289 339 157 254 308 340 283 279 341 23 26 62 59 52 78 81 80 79 63 53 50 45 47
199 201 207 210 215 220 247 267 267 278 278 262 248 201 193 187 173 179 136 266 290 255 222 225 214 232 236 239 215 181 176 201 192 233 183 150 136 187 152 139 171 167 152 170 156 149 180 236 244 235 209 222 265 209 149 156 178 196 188 178 238 235 205 272 279 301 322 254 272 321 318 281 273 73 59 39 68 76 64 72 69 68 77 66 57 49 40 46
215 210 211 215 219 229 254 265 267 268 252 228 221 202 181 165 165 168 132 49 286 274 231 208 193 203 209 215 193 178 197 201 168 211 181 159 145 155 165 172 167 159 188 197 180 176 215 238 239 193 161 183 240 268 180 159 241 247 213 203 227 223 205 229 280 315 332 343 3 19 335 296 261 213 98 72 73 76 67 74 69 58 67 69 66 55 43 44
212 204 208 213 219 239 261 272 266 237 211 206 214 202 169 153 168 165 131 40 291 289 263 202 178 186 181 146 167 172 164 191 208 203 178 169 153 139 189 171 151 200 210 192 183 208 241 241 110 118 152 162 199 258 229 170 217 284 233 212 214 219 222 225 341 14 17 340 330 38 350 295 294 283 154 140 84 69 58 61 68 55 51 56 60 56 44 41
202 201 210 213 222 235 252 273 239 193 193 223 211 193 174 164 177 173 111 50 286 272 219 172 175 172 167 116 159 141 104 248 271 118 157 172 172 135 174 176 146 214 197 169 175 220 247 238 160 171 169 147 178 245 237 168 152 279 250 206 193 182 190 179 132 88 121 247 289 56 141 267 313 320 192 165 111 88 73 59 67 60 52 54 57 55 45 39
203 210 217 223 231 224 209 221 199 173 178 232 201 188 188 167 179 189 103 17 283 222 135 176 255 143 161 222 238 134 159 239 91 73 120 146 209 82 140 209 175 206 178 125 161 235 217 219 210 199 176 161 196 248 228 161 132 244 247 139 132 136 156 163 131 131 211 249 318 360 154 253 292 280 208 153 122 109 100 80 77 71 64 61 55 53 48 40
208 218 223 229 237 224 212 207 186 186 214 213 180 183 189 181 185 151 78 305 281 112 111 248 100 101 136 41 48 113 195 237 106 247 357 94 110 63 117 222 178 198 187 124 205 256 191 204 215 181 164 188 212 231 198 154 144 240 215 125 120 135 143 127 104 105 290 5 307 285 158 249 265 272 217 153 153 167 159 141 119 101 87 74 64 57 47 38
211 220 225 230 239 231 220 220 207 210 222 184 160 170 167 177 178 84 81 232 275 82 88 86 121 77 49 78 46 75 69 17 116 244 360 80 54 66 162 212 158 190 285 121 208 256 48 227 204 149 151 205 210 233 188 160 180 214 153 100 61 71 83 77 103 112 31 349 252 235 180 207 266 280 209 186 223 206 169 154 144 129 117 106 91 77 60 46
213 219 225 228 232 225 217 221 224 219 209 182 163 158 153 150 121 108 215 225 59 105 141 104 166 144 101 109 38 23 94 24 52 32 29 55 8 28 112 172 97 113 336 11 263 258 323 286 194 142 175 194 156 106 115 151 161 127 94 56 28 28 43 45 72 89 56 278 250 223 192 183 266 286 197 192 261 198 157 151 161 149 135 137 127 101 86 65
214 218 224 228 228 220 206 213 219 212 198 182 163 146 144 104 96 191 219 222 52 176 140 117 183 130 127 136 160 171 111 44 33 76 75 65 30 30 46 77 71 67 355 333 311 306 329 323 255 251 189 134 103 82 31 17 57 93 79 63 41 345 9 23 358 45 123 254 267 235 185 167 226 266 269 289 311 239 169 165 167 159 150 152 142 126 115 95
216 219 224 230 232 222 209 216 215 203 190 174 158 138 123 149 214 204 209 71 131 196 163 169 187 158 158 145 151 165 135 127 145 112 130 139 151 180 173 172 157 82 320 253 268 337 309 246 266 307 241 138 108 86 16 4 32 79 90 82 75 331 351 354 305 349 216 252 270 177 132 165 236 239 309 307 321 309 194 160 158 155 151 155 156 153 150 132
222 225 228 231 230 221 217 221 212 197 184 168 156 130 119 204 225 181 163 186 210 190 135 130 151 155 150 137 169 173 140 165 181 154 142 125 150 223 246 211 168 129 193 204 199 355 295 290 308 339 280 175 140 148 182 254 127 137 144 125 121 142 205 264 264 267 263 269 274 164 135 271 268 296 338 311 319 319 106 128 140 145 146 155 159 157 150 129
224 225 226 225 221 217 214 211 202 192 181 165 155 139 159 213 230 151 181 204 214 28 65 109 135 134 140 158 196 173 144 190 174 143 98 104 131 232 251 234 195 159 118 143 182 176 197 294 238 179 233 186 170 181 163 143 152 176 157 136 146 160 173 222 227 214 254 280 288 247 185 210 225 293 325 325 345 358 67 104 117 122 132 141 135 139 138 119
218 215 215 211 207 206 202 196 190 186 178 162 158 182 193 210 178 148 195 194 169 101 41 63 116 127 167 214 215 181 164 193 155 125 124 153 175 200 211 214 191 168 135 147 223 176 165 256 251 237 243 166 174 196 134 114 104 220 130 114 171 189 168 208 221 183 193 292 285 230 214 204 184 264 335 20 37 40 59 89 109 118 130 134 139 155 153 136
201 199 202 200 199 198 192 185 178 178 176 163 183 202 207 201 158 172 196 166 167 154 129 75 81 137 208 262 233 206 158 117 135 139 189 191 206 207 213 229 188 175 171 164 206 180 146 265 279 352 16 160 169 189 133 124 182 168 128 179 216 181 133 124 271 233 98 271 266 210 230 285 335 275 333 46 61 72 79 107 130 148 159 159 172 178 169 160
179 179 187 194 197 194 189 183 173 175 178 182 209 213 202 183 181 177 175 149 151 134 139 166 167 172 194 207 217 201 163 126 138 156 208 214 230 204 206 258 188 184 195 175 210 207 150 263 284 128 144 240 188 120 63 45 138 132 165 214 201 109 87 97 237 322 18 251 274 273 238 251 240 247 285 86 159 178 183 174 168 184 187 183 189 191 192 178
163 162 177 197 195 187 184 184 175 171 176 215 222 229 189 200 212 163 153 140 120 119 147 188 195 176 179 191 213 187 166 175 162 168 190 206 239 193 176 217 202 200 215 173 183 245 129 218 286 243 158 274 9 83 50 351 70 129 187 204 122 129 254 83 165 227 243 246 279 292 268 242 208 208 194 200 203 193 191 192 193 202 198 193 197 201 203 185
150 144 185 200 191 184 181 180 172 166 202 216 216 225 199 201 237 195 169 138 109 131 166 200 191 156 173 178 182 176 172 178 170 173 176 180 227 206 159 189 196 219 240 155 171 235 110 151 274 308 176 280 35 86 194 243 18 65 76 353 71 167 180 170 175 173 189 228 259 286 291 267 237 201 183 201 198 181 183 192 198 204 199 196 197 196 195 187
137 124 238 185 180 180 178 173 165 181 221 216 205 198 180 190 215 228 194 147 122 147 179 194 171 161 179 156 146 170 169 172 168 175 200 184 207 243 172 150 153 132 21 97 145 200 98 151 232 300 333 127 166 212 195 183 166 118 134 206 237 194 154 226 215 136 148 191 225 269 274 262 260 194 185 206 194 176 182 186 193 202 200 204 205 197 194 189
131 139 200 173 172 171 170 169 178 202 212 222 201 169 170 185 167 193 285 102 110 117 152 162 164 166 168 151 148 146 125 152 164 169 222 213 205 234 188 119 150 159 66 70 103 147 140 157 186 252 302 188 223 243 192 177 167 154 172 192 186 164 138 236 255 188 148 180 190 232 265 268 269 263 227 222 186 177 184 180 183 197 201 208 211 200 194 190
136 158 148 167 173 167 161 184 205 188 212 216 189 163 165 170 149 156 138 60 92 134 86 115 161 168 163 160 164 159 145 153 163 165 223 225 219 209 186 174 150 135 115 109 186 206 113 111 149 222 210 210 242 295 222 193 152 131 175 185 156 150 138 181 234 220 159 213 156 183 260 268 265 292 297 212 169 170 177 174 180 196 204 206 206 201 198 197
138 138 119 163 175 168 162 216 203 191 228 207 167 177 157 143 157 159 162 153 138 143 136 159 177 190 202 172 146 161 165 157 180 191 204 214 224 231 190 210 83 90 97 132 220 181 81 98 183 263 301 313 318 336 348 6 86 111 264 163 138 164 151 175 216 166 140 243 211 220 252 243 277 331 18 91 131 150 176 189 189 194 201 201 200 200 197 193
115 97 65 166 182 181 184 217 203 205 217 189 183 209 165 123 175 172 175 191 179 149 160 187 187 197 206 177 162 174 174 178 203 200 195 194 210 246 58 105 163 137 151 205 193 186 187 157 156 210 295 324 334 341 343 337 337 178 242 212 146 132 112 105 120 105 137 225 191 217 250 242 296 4 49 95 130 159 195 207 197 192 199 205 205 202 196 190
112 94 25 147 203 211 218 210 208 214 204 189 196 203 198 196 190 183 189 196 182 158 163 194 190 185 178 165 171 183 184 198 211 202 196 198 229 350 29 66 179 173 196 222 181 171 184 179 156 177 224 241 240 221 223 252 237 204 241 217 175 138 131 129 123 140 212 206 170 209 246 263 343 2 19 194 183 196 221 224 218 221 218 214 210 203 196 191
118 120 64 60 260 266 271 170 30 240 201 189 192 195 201 220 227 183 190 204 201 177 182 202 172 165 173 173 180 200 206 211 208 188 183 187 218 301 348 27 107 152 160 122 85 96 128 187 201 198 224 235 218 209 205 166 162 195 241 221 206 179 144 127 119 165 205 196 209 229 217 224 288 255 219 237 233 225 235 230 226 233 228 221 216 206 199 194
128 171 172 154 163 261 274 267 234 236 207 182 191 189 196 209 230 209 197 210 198 181 194 217 160 180 194 180 185 210 209 205 199 182 171 165 183 280 342 59 68 56 86 92 58 77 116 226 232 204 235 240 156 176 203 146 166 200 220 242 235 202 138 135 177 202 176 180 243 242 194 186 249 242 202 212 230 232 236 232 229 232 228 217 202 194 197 196
151 173 191 176 142 193 222 234 222 226 247 231 223 290 211 208 215 214 206 204 177 187 202 226 202 204 197 175 180 204 197 196 202 187 168 154 155 149 18 22 18 14 44 61 24 87 128 229 223 164 238 245 128 150 184 149 189 217 219 241 248 225 160 163 211 213 180 198 248 252 212 207 241 246 203 203 215 219 232 235 225 220 215 197 184 188 193 190
123 104 239 241 180 194 201 202 195 211 230 234 240 248 233 222 220 216 189 124 199 211 205 218 221 208 196 184 184 196 196 190 197 191 172 166 163 151 130 253 275 25 67 83 14 79 131 217 180 140 235 258 159 183 190 170 207 236 236 239 243 235 190 193 224 222 199 220 248 256 257 255 254 241 222 224 216 207 228 246 224 196 195 189 189 189 186 183
124 151 197 170 226 209 198 190 176 198 220 220 226 231 225 224 228 224 190 173 209 215 198 217 224 201 193 199 196 206 208 186 186 194 173 167 187 181 177 194 168 91 74 111 168 338 100 183 134 107 212 289 298 198 184 164 187 238 258 252 233 204 218 226 234 227 211 235 246 252 264 269 265 240 220 233 213 172 195 224 223 215 197 182 184 184 180 187
82 349 85 145 208 192 172 184 179 193 209 206 217 224 215 220 223 217 212 209 211 207 196 208 214 196 194 210 210 216 212 177 181 190 165 168 188 183 182 189 158 143 145 157 164 39 108 173 56 78 130 280 309 196 205 31 27 287 272 260 231 206 234 240 228 207 212 228 238 240 246 255 260 254 235 231 210 193 205 211 211 215 195 176 177 181 186 197
169 327 55 117 219 206 184 189 184 197 213 206 211 217 215 220 211 186 207 242 165 219 228 205 194 179 192 213 217 214 183 137 132 125 108 110 103 90 99 137 140 148 157 154 148 106 130 146 131 109 154 270 297 236 198 36 9 283 265 245 222 224 237 246 247 234 220 203 200 218 229 238 245 251 255 247 231 224 222 209 197 201 199 190 185 184 194 207